AO-07 1 07530U 74089B 14078.52669426 -.00000013 00000-0 19212-3 0 9200 2 07530 101.4644 063.3385 0012335 109.5110 004.5826 12.53602929800288 FO-29 1 24278U 96046B 14077.11613192 .00000014 00000-0 49071-4 0 3311 2 24278 098.5192 103.5245 0350917 173.7838 235.3250 13.53017863868358 SO-33 1 25509U 98061B 14077.07582152 .00001489 00000-0 28437-3 0 7115 2 25509 031.4313 316.5916 0349810 036.1914 077.8036 14.29372776804100 RS-22 1 27939U 03042A 14079.45034521 .00001475 00000-0 28319-3 0 3249 2 27939 097.8038 258.0385 0013796 032.7620 327.4501 14.65003806559738 VO-52 1 28650U 05017B 14078.48759469 .00004103 00000-0 48375-3 0 6867 2 28650 097.5618 087.9600 0027246 094.2131 266.2199 14.85005441479917 HO-68 1 36122U 09072B 14079.10654330 -.00000043 00000-0 00000 0 0 4256 2 36122 100.2622 133.6588 0007647 082.6577 277.5444 13.16313085204710 AO-73 1 39444U 13066AE 14079.13784068 .00003674 00000-0 50206-3 0 940 2 39444 097.7796 152.8144 0062874 171.2454 188.9847 14.77795701 16311 UO-11 1 14781U 84021B 14078.47505632 .00001239 00000-0 16501-3 0 4422 2 14781 097.8625 140.3119 0010189 113.1536 247.0752 14.81403743614685 AO-16 1 20439U 90005D 14077.84826560 .00000299 00000-0 12658-3 0 9805 2 20439 098.5007 016.9180 0011952 070.1023 355.6529 14.32307650261550 LO-19 1 20442U 90005G 14078.11362402 .00000306 00000-0 12879-3 0 9196 2 20442 098.4713 018.1063 0012741 059.3456 300.8983 14.32512485261793 AO-27 1 22825U 93061C 14077.84088212 .00000255 00000-0 11665-3 0 6227 2 22825 098.6535 024.4481 0008274 195.0479 223.2828 14.29678400 67872 IO-26 1 22826U 93061D 14078.40351260 .00000300 00000-0 13359-3 0 3801 2 22826 098.6478 025.2414 0008979 186.6045 173.5020 14.29974911 68082 GO-32 1 25397U 98043D 14078.81857615 .00000169 00000-0 93016-4 0 3039 2 25397 098.4583 040.1911 0001399 159.4155 257.9390 14.23418412815158 NO-44 1 26931U 01043C 14077.82750448 .00000294 00000-0 14565-3 0 5575 2 26931 067.0508 271.4578 0005364 274.7111 085.3377 14.30064447650685 SO-50 1 27607U 02058C 14079.93391608 .00001402 00000-0 21225-3 0 3364 2 27607 064.5568 141.3399 0037263 042.0493 318.3951 14.73534350604477 CO-55 1 27844U 03031E 14078.03453289 .00000480 00000-0 23949-3 0 8818 2 27844 098.7004 088.1035 0010216 169.6092 255.1654 14.21428457555778 CO-57 1 27848U 03031J 14078.01878708 .00000411 00000-0 20913-3 0 8224 2 27848 098.7096 087.7494 0010016 175.7046 244.0294 14.21125982555697 AO-51 1 28375U 04025K 14077.82222021 .00000432 00000-0 14162-3 0 7976 2 28375 098.2412 027.8575 0081893 265.3149 093.8685 14.41321671510887 CP3 1 31129U 07012N 14077.84373634 .00002087 00000-0 47111-3 0 7007 2 31129 097.9265 060.4588 0097349 292.6780 130.8417 14.54428675366907 CO-65 1 32785U 08021C 14078.15100104 .00003143 00000-0 37486-3 0 8988 2 32785 097.7103 132.3717 0015406 123.3258 296.1300 14.84892607318662 PRISM 1 33493U 09002B 14079.31202270 .00006903 00000-0 74740-3 0 7464 2 33493 098.2425 251.2643 0017846 016.8734 343.3088 14.88470601278951 SOHLA-1 1 33496U 09002E 14078.80340983 .00001001 00000-0 17274-3 0 3025 2 33496 098.1574 199.5867 0007179 158.7209 321.0697 14.70666280276375 TISAT-1 1 36799U 10035E 14079.29958540 .00004547 00000-0 53900-3 0 98 2 36799 098.0177 170.6688 0012906 248.6899 111.2945 14.84977377199524 STUDSAT 1 36801U 10035G 14078.43031852 .00020703 00000-0 19425-2 0 7895 2 36801 098.0324 176.1996 0010374 223.5523 263.2170 14.93969780199716 ALMASAT-1 1 38078U 12006B 14079.71080591 .00074614 00000-0 16641-2 0 9720 2 38078 069.4692 271.6263 0623990 149.3240 214.6503 14.42173774108845 XATCOBEO 1 38082U 12006F 14079.38508128 .00220876 12988-4 24520-2 0 517 2 38082 069.4479 199.8302 0343774 109.6165 313.9418 15.14791077110766 CUBEBUG-1 1 39153U 13018D 14079.44184462 .00002399 00000-0 34432-3 0 9563 2 39153 098.0468 159.9231 0016854 276.9488 082.9802 14.77338050 48454 ESTCUBE-1 1 39161U 13021C 14079.31876310 .00001934 00000-0 33286-3 0 9292 2 39161 098.1015 160.8666 0009132 324.1240 035.9351 14.69703678 46546 MET-3/5 1 21655U 91056A 14079.77095035 -.00000426 00000-0 10000-3 0 9297 2 21655 082.5572 058.8871 0013700 153.5222 206.7043 13.17049459 86535 MET-2/21 1 22782U 93055A 14078.47621035 .00000094 00000-0 71108-4 0 64 2 22782 082.5476 244.4749 0023124 154.8946 257.6268 13.83728398 37714 OKEAN-4 1 23317U 94066A 14079.82482419 .00001891 00000-0 21957-3 0 4823 2 23317 082.5400 150.7632 0022323 035.5148 324.8056 14.85263688 50238 NOAA-14 1 23455U 94089A 14079.33257281 .00000026 00000-0 36864-4 0 6908 2 23455 098.7803 164.3373 0008414 293.4687 107.9215 14.13957907991391 NOAA-15 1 25338U 98030A 14079.47823944 .00000402 00000-0 18944-3 0 1192 2 25338 098.7489 073.5318 0011357 051.2251 111.8332 14.25371211824200 RESURS 1 25394U 98043A 14077.81739655 .00000114 00000-0 67181-4 0 6125 2 25394 098.4028 046.0438 0002201 135.6906 283.3322 14.24378178815457 FENGYUN1 1 25730U 99025A 14078.11614821 .00003210 00000-0 17838-2 0 1050 2 25730 098.9071 039.8117 0028426 005.9183 053.3549 14.11604716764816 OKEAN-0 1 25860U 99039A 14078.02596171 .00001374 00000-0 21146-3 0 2032 2 25860 098.0327 042.4908 0001394 079.7057 319.5702 14.75076564788860 NOAA-16 1 26536U 00055A 14079.78249944 .00000223 00000-0 11973-3 0 6099 2 26536 099.0013 139.7185 0011498 077.3035 282.9897 14.13007289695637 NOAA-17 1 27453U 02032A 14079.84561822 .00000300 00000-0 12900-3 0 5157 2 27453 098.3131 084.2155 0012820 074.7403 285.5669 14.24708876610118 NOAA-18 1 28654U 05018A 14079.79713227 .00000443 00000-0 24216-3 0 9986 2 28654 099.1394 057.5623 0014693 148.5099 211.7431 14.11971631455095 NOAA-19 1 33591U 09005A 14079.80700206 .00000265 00000-0 14546-3 0 1672 2 33591 098.9361 025.1479 0014533 013.2651 346.9385 14.11667547263529 HUBBLE 1 20580U 90037B 14077.75109080 .00004197 00000-0 27714-3 0 4612 2 20580 028.4697 271.4697 0003533 042.8441 018.5049 15.04938338111077 ISS 1 25544U 98067A 14079.78334112 .00024074 00000-0 40928-3 0 9117 2 25544 051.6474 177.7459 0003642 327.9101 032.2183 15.50791378 5333 CO-58 1 28895U 05043F 14078.81534555 .00001418 00000-0 29323-3 0 7219 2 28895 097.8432 285.2933 0016145 293.9471 066.0040 14.61676859447195 FALCON 1 30776U 07006E 14078.59196226 .00012409 00000-0 65865-3 0 8275 2 30776 035.4293 307.8901 0001781 261.2583 189.8557 15.14603295387134 MAST 1 31126U 07012K 14078.48288249 .00001170 00000-0 26695-3 0 01 2 31126 097.9074 064.1008 0090899 274.0714 203.3522 14.55102727367344 CAPE1 1 31130U 07012P 14077.66989701 .00002015 00000-0 45722-3 0 52 2 31130 097.9276 059.8780 0097889 294.4702 064.6310 14.54198955366653 COMPASS 1 32787U 08021E 14078.37147797 .00004847 00000-0 54315-3 0 8806 2 32787 097.7123 134.4570 0015610 116.9334 243.3479 14.87207402318832 AAUSAT2 1 32788U 08021F 14078.14778344 .00005784 00000-0 63704-3 0 8678 2 32788 097.7128 135.1223 0015104 116.8757 243.4006 14.87838664318856 DO-64 1 32789U 08021G 14078.79858476 .00010955 00000-0 10845-2 0 9039 2 32789 097.7306 141.4406 0014076 104.9834 307.9618 14.91946435319160 CO-66 1 32791U 08021J 14078.78914212 .00003716 00000-0 43007-3 0 8642 2 32791 097.7115 133.8056 0016112 118.2472 242.0372 14.86014353318777 RS-30 1 32953U 08025A 14079.21230881 .00000010 00000-0 00000 0 0 7531 2 32953 082.4987 256.5335 0018597 352.4553 007.6254 12.43044025264201 METEOR-M 1 35865U 09049A 14079.70329669 .00000044 00000-0 20150-4 0 3637 2 35865 098.5604 129.7526 0002526 016.3740 343.7996 14.21913133233826 RS-38 1 35869U 09049E 14079.19394524 .00000090 00000-0 59649-4 0 3003 2 35869 098.5554 129.0842 0004933 003.5071 356.6129 14.22189782233723 JUGNU 1 37839U 11058B 14077.32269730 .00000541 00000-0 14755-3 0 5829 2 37839 019.9620 085.6235 0019220 063.2164 054.2086 14.12269432125696 SRMSAT 1 37841U 11058D 14078.39859561 .00000517 00000-0 14071-3 0 5854 2 37841 019.9723 096.6251 0012052 018.7642 114.4435 14.10318862125669 RAX-2 1 37853U 11061D 14077.49604082 .00014879 00000-0 10365-2 0 7520 2 37853 101.7162 063.9866 0221010 318.9947 154.4953 14.87943141129163 AUBIESAT 1 37854U 11061E 14078.56786513 .00016042 00000-0 10853-2 0 7368 2 37854 101.7206 067.1226 0219077 313.5445 162.4539 14.89180198129361 HRBE 1 37855U 11061F 14078.58458524 .00015117 00000-0 10342-2 0 7454 2 37855 101.7211 066.6418 0220888 314.4955 161.7433 14.88569648129346 RS-39 1 38051U 11062C 14079.24847345 .00063877 00000-0 11824-2 0 3741 2 38051 051.6305 306.8343 0010142 196.8657 270.1587 15.48357950120275 E-STAR 1 38079U 12006C 14079.21894723 .00156573 73645-5 23233-2 0 7858 2 38079 069.4582 222.8477 0446784 122.7711 241.7411 14.87868433110126 GOLIAT 1 38085U 12006J 14079.44993017 .00142637 65527-5 21612-2 0 8997 2 38085 069.4592 227.5309 0465679 125.1999 306.9912 14.83528616110020 HORYU-2 1 38340U 12025D 14078.85890391 .00002986 00000-0 48257-3 0 7971 2 38340 098.2540 034.6223 0013602 097.5938 262.6849 14.72067296 98650 RS-40 1 38735U 12041C 14079.23180290 .00000024 00000-0 10000-3 0 5198 2 38735 082.4813 343.0134 0017785 087.1616 273.1502 12.42557493 74530 PROITERES 1 38756U 12047B 14079.18195009 .00001398 00000-0 21682-3 0 6739 2 38756 098.2282 166.0215 0011614 311.8957 048.1246 14.74755587 82064 BEESAT-3 1 39134U 13015E 14078.39402034 .00011196 00000-0 81985-3 0 5296 2 39134 064.8745 062.4989 0020005 324.9205 035.0605 15.03759262 50156 BEESAT-2 1 39136U 13015G 14079.22411173 .00009887 00000-0 73332-3 0 5195 2 39136 064.8728 060.1141 0019972 324.1151 035.8629 15.03357825 50273 LO-75 1 39382U 13064C 14079.49455652 .00082465 00000-0 26047-2 0 1572 2 39382 040.4948 264.8740 0013056 331.1720 028.8873 15.31893680 18390 ZACUBE-1 1 39417U 13066B 14079.00710074 .00002843 00000-0 39133-3 0 2497 2 39417 097.7840 152.6822 0063015 171.6257 188.6000 14.77672428 17527 TRITON-1 1 39427U 13066M 14079.20743573 .00002747 00000-0 46970-3 0 1017 2 39427 097.7704 150.4927 0119316 173.0252 187.2641 14.65022844 17362 DELFIN3XT 1 39428U 13066N 14079.13515939 .00004362 00000-0 76591-3 0 1054 2 39428 097.7685 149.9652 0130649 174.2090 186.0657 14.62701049 17311 GOMX-1 1 39430U 13066Q 14079.14880921 .00002640 00000-0 51079-3 0 3215 2 39430 097.7662 148.8602 0157524 176.9392 183.2816 14.56465084 17255 MO-76 1 39436U 13066W 14079.53021053 .00022746 00000-0 25111-2 0 1367 2 39436 097.7858 154.6454 0029599 180.9871 179.1795 14.87174321 17687 LO-74 1 39440U 13066AA 14079.27422343 .00002922 00000-0 44077-3 0 995 2 39440 097.7775 151.9943 0085093 170.5502 189.7318 14.72647148 17493 PUCPSAT-1 1 39442U 13066AC 14079.20725040 .00004444 00000-0 51590-3 0 966 2 39442 097.7879 154.3099 0035078 175.9793 184.1592 14.85446544 16413 LITSAT-1 1 39568U 98067EM 14079.42599258 .00156327 00000-0 20585-2 0 274 2 39568 051.6495 179.0109 0008449 343.9826 062.8096 15.57366566 3116 LITUANSAT 1 39569U 98067EN 14079.49510025 .00107661 00000-0 15528-2 0 679 2 39569 051.6460 178.8277 0007174 334.0342 026.0803 15.55307776 3125 SHINAISAT 1 39572U 14009A 14079.14845785 .00049372 00000-0 59126-3 0 355 2 39572 065.0152 350.1913 0011991 280.7395 079.2430 15.60587113 3177 OPUSAT 1 39575U 14009D 14079.51591816 .00062602 00000-0 70737-3 0 433 2 39575 065.0161 348.8051 0007065 297.7499 062.3453 15.62102079 3249 TEIKYOSAT 1 39576U 14009E 14079.87800545 .00328985 00000-0 30548-2 0 350 2 39576 065.0089 347.3612 0008720 256.8390 103.2304 15.67042525 3289 IFT-1 1 39577U 14009F 14078.86233857 .00078527 00000-0 83895-3 0 353 2 39577 065.0141 350.9360 0004629 305.1464 054.9270 15.63458735 3131 INVADER 1 39578U 14009G 14078.90812102 .00163566 00000-0 15365-2 0 315 2 39578 065.0109 350.6250 0003728 301.8132 058.2664 15.66395038 3149 STARS-II 1 39579U 14009H 14079.23975825 .00236384 00000-0 21726-2 0 334 2 39579 065.0109 349.5726 0007383 254.7080 105.3487 15.66680730 3192 /EX